Jefferson, NC

2:08 PM EST on November 14, 2019 (GMT -0500)
Ashe County

Weather History for KGEV - July, 2019

Change the Weather History Date:

Friday, July 12, 2019

  Actual Average Record
Temperature  
Mean Temperature 74 °F -  
Max Temperature 81 °F 81 °F 90 °F (1993)
Min Temperature 66 °F 59 °F 48 °F (1983)
Cooling Degree Days 8    
Growing Degree Days 24 (Base 50)    
Moisture  
Dew Point 64 °F    
Average Humidity 74    
Maximum Humidity 94    
Minimum Humidity 47    
Precipitation  
Precipitation 0.00 in - - ()
Sea Level Pressure  
Sea Level Pressure 30.05 in    
Wind  
Wind Speed 7 mph (WNW)    
Max Wind Speed 16 mph    
Max Gust Speed 21 mph    
Visibility 10 miles    
Events      
Averages and records for this station are not official NWS values.
T = Trace of Precipitation, MM = Missing Value Source: NWS Daily Summary

Daily Weather History Graph

Daily Weather History Graph

Search for Another Location

Airport or City:

Astronomy

Jul. 12, 2019 Rise Set
Actual Time 6:17 AM EDT 8:45 PM EDT
Civil Twilight 5:47 AM EDT 9:14 PM EDT
Nautical Twilight 5:10 AM EDT 9:51 PM EDT
Astronomical Twilight 4:29 AM EDT 10:32 PM EDT
Moon 5:05 PM EDT (7/12) 2:56 AM EDT (7/12)
Length of Visible Light 15h 27m
Length of Day
14h 27m
Waxing Gibbous, 82% of the Moon is Illuminated
Jul 12
Waxing Gibbous
Jul 16
Full
Jul 24
Last Quarter
Jul 31
New
Aug 7
First Quarter

Hourly Weather History & Observations

Time (EDT) Temp. Heat Index Dew Point Humidity Pressure Visibility Wind Dir Wind Speed Gust Speed Precip Events Conditions
12:15 AM 69.1 °F - 63.9 °F 83% 30.04 in 10.0 mi WNW 11.5 mph - N/A   Overcast
12:35 AM 68.7 °F - 64.0 °F 85% 30.03 in 10.0 mi WNW 9.2 mph - N/A   Overcast
12:55 AM 68.5 °F - 64.4 °F 87% 30.03 in 10.0 mi West 9.2 mph - N/A   Overcast
1:15 AM 68.5 °F - 64.4 °F 87% 30.03 in 10.0 mi West 6.9 mph - N/A   Overcast
1:35 AM 67.5 °F - 64.4 °F 90% 30.03 in 10.0 mi Calm Calm - N/A   Overcast
1:55 AM 68.4 °F - 64.4 °F 87% 30.02 in 10.0 mi West 5.8 mph - N/A   Mostly Cloudy
2:15 AM 68.2 °F - 64.4 °F 88% 30.02 in 10.0 mi WNW 10.4 mph - N/A   Mostly Cloudy
2:35 AM 68.4 °F - 64.4 °F 87% 30.02 in 10.0 mi WNW 6.9 mph - N/A   Scattered Clouds
2:55 AM 67.1 °F - 64.4 °F 91% 30.01 in 10.0 mi Calm Calm - N/A   Scattered Clouds
3:15 AM 67.6 °F - 64.4 °F 89% 30.01 in 10.0 mi WSW 3.5 mph - N/A   Clear
3:35 AM 66.0 °F - 64.4 °F 94% 30.01 in 10.0 mi Calm Calm - N/A   Clear
3:55 AM 66.7 °F - 64.4 °F 92% 30.00 in 10.0 mi Calm Calm - N/A   Clear
4:15 AM 67.3 °F - 64.6 °F 91% 30.01 in 10.0 mi West 10.4 mph - N/A   Scattered Clouds
4:35 AM 67.1 °F - 64.4 °F 91% 30.00 in 10.0 mi WNW 9.2 mph - N/A   Scattered Clouds
4:55 AM 67.6 °F - 64.4 °F 89% 30.00 in 10.0 mi West 12.7 mph 18.4 mph N/A   Clear
5:35 AM 67.5 °F - 64.9 °F 92% 30.01 in 10.0 mi WNW 10.4 mph 16.1 mph N/A   Mostly Cloudy
5:55 AM 67.6 °F - 65.1 °F 92% 30.01 in 10.0 mi West 16.1 mph 20.7 mph N/A   Mostly Cloudy
6:15 AM 68.0 °F - 65.3 °F 91% 30.01 in 10.0 mi WNW 12.7 mph 20.7 mph N/A   Mostly Cloudy
6:35 AM 68.4 °F - 64.9 °F 89% 30.01 in 10.0 mi WNW 12.7 mph 16.1 mph N/A   Scattered Clouds
6:55 AM 68.0 °F - 64.8 °F 89% 30.01 in 10.0 mi NW 3.5 mph - N/A   Clear
7:15 AM 69.3 °F - 64.8 °F 86% 30.02 in 10.0 mi West 9.2 mph - N/A   Clear
7:35 AM 70.0 °F - 64.9 °F 84% 30.02 in 10.0 mi WNW 9.2 mph - N/A   Clear
7:55 AM 70.2 °F - 65.5 °F 85% 30.03 in 10.0 mi WNW 5.8 mph - N/A   Clear
8:15 AM 70.7 °F - 65.5 °F 83% 30.04 in 10.0 mi NNW 4.6 mph - N/A   Scattered Clouds
8:35 AM 71.8 °F - 65.5 °F 80% 30.04 in 10.0 mi WSW 3.5 mph - N/A   Mostly Cloudy
8:55 AM 70.9 °F - 65.1 °F 82% 30.06 in 10.0 mi West 6.9 mph - N/A   Overcast
9:35 AM 71.1 °F - 64.9 °F 81% 30.06 in 10.0 mi NW 5.8 mph - N/A   Overcast
9:55 AM 71.6 °F - 65.1 °F 80% 30.06 in 10.0 mi West 10.4 mph - N/A   Scattered Clouds
10:15 AM 73.6 °F - 65.7 °F 76% 30.06 in 10.0 mi West 8.1 mph - N/A   Scattered Clouds
10:35 AM 74.7 °F - 65.5 °F 73% 30.07 in 10.0 mi West 9.2 mph - N/A   Mostly Cloudy
10:55 AM 75.4 °F - 65.5 °F 71% 30.07 in 10.0 mi WNW 8.1 mph - N/A   Mostly Cloudy
11:15 AM 75.7 °F - 64.8 °F 69% 30.08 in 10.0 mi WNW 8.1 mph - N/A   Mostly Cloudy
11:35 AM 76.1 °F - 65.8 °F 70% 30.08 in 10.0 mi West 8.1 mph - N/A   Mostly Cloudy
11:55 AM 77.0 °F - 65.3 °F 67% 30.07 in 10.0 mi West 10.4 mph - N/A   Mostly Cloudy
12:15 PM 77.5 °F - 65.1 °F 65% 30.08 in 10.0 mi West 10.4 mph 19.6 mph N/A   Scattered Clouds
12:35 PM 78.4 °F - 65.5 °F 64% 30.08 in 10.0 mi West 10.4 mph - N/A   Scattered Clouds
12:55 PM 78.8 °F - 65.3 °F 63% 30.07 in 10.0 mi West 8.1 mph - N/A   Mostly Cloudy
1:15 PM 78.8 °F - 64.6 °F 62% 30.07 in 10.0 mi West 10.4 mph - N/A   Mostly Cloudy
1:35 PM 78.6 °F - 65.1 °F 63% 30.07 in 10.0 mi NW 6.9 mph - N/A   Mostly Cloudy
1:55 PM 79.0 °F - 63.5 °F 59% 30.07 in 10.0 mi West 9.2 mph 18.4 mph N/A   Scattered Clouds
2:15 PM 79.7 °F - 64.4 °F 59% 30.06 in 10.0 mi NNW 6.9 mph 17.3 mph N/A   Clear
2:35 PM 79.5 °F - 64.0 °F 59% 30.06 in 10.0 mi WNW 10.4 mph - N/A   Clear
2:55 PM 80.1 °F 81.1 °F 61.7 °F 53% 30.06 in 10.0 mi West 9.2 mph - N/A   Clear
3:35 PM 80.8 °F 81.5 °F 60.8 °F 50% 30.06 in 10.0 mi West 10.4 mph 16.1 mph N/A   Clear
3:55 PM 80.8 °F 81.4 °F 60.1 °F 49% 30.05 in 10.0 mi WSW 5.8 mph - N/A   Clear
4:15 PM 81.0 °F 81.6 °F 59.9 °F 49% 30.05 in 10.0 mi West 8.1 mph 16.1 mph N/A   Clear
4:35 PM 81.0 °F 81.3 °F 59.0 °F 47% 30.05 in 10.0 mi West 6.9 mph - N/A   Clear
4:55 PM 81.5 °F 81.8 °F 59.5 °F 47% 30.05 in 10.0 mi West 9.2 mph - N/A   Clear
5:15 PM 81.0 °F 81.6 °F 60.3 °F 49% 30.05 in 10.0 mi West 3.5 mph - N/A   Clear
5:35 PM 81.0 °F 81.3 °F 59.2 °F 47% 30.04 in 10.0 mi West 8.1 mph - N/A   Clear
5:55 PM 81.0 °F 81.5 °F 59.5 °F 48% 30.04 in 10.0 mi West 8.1 mph - N/A   Clear
6:15 PM 80.4 °F 81.4 °F 61.5 °F 52% 30.04 in 10.0 mi West 9.2 mph - N/A   Clear
6:35 PM 80.1 °F 81.2 °F 61.9 °F 54% 30.04 in 10.0 mi West 10.4 mph - N/A   Clear
6:55 PM 78.8 °F - 62.8 °F 58% 30.05 in 10.0 mi West 5.8 mph - N/A   Scattered Clouds
7:15 PM 77.0 °F - 64.8 °F 66% 30.05 in 10.0 mi NW 4.6 mph - N/A   Scattered Clouds
7:35 PM 76.5 °F - 66.2 °F 70% 30.06 in 10.0 mi Calm Calm - N/A   Clear
7:55 PM 75.2 °F - 66.4 °F 74% 30.06 in 10.0 mi NNW 4.6 mph - N/A   Mostly Cloudy
8:15 PM 74.8 °F - 65.8 °F 73% 30.07 in 10.0 mi NNW 3.5 mph - N/A   Mostly Cloudy
8:55 PM 74.7 °F - 65.3 °F 73% 30.08 in 10.0 mi Calm Calm - N/A   Mostly Cloudy
9:15 PM 74.5 °F - 64.8 °F 72% 30.09 in 10.0 mi WNW 3.5 mph - N/A   Scattered Clouds
9:35 PM 74.1 °F - 64.8 °F 72% 30.09 in 10.0 mi Calm Calm - N/A   Clear
9:55 PM 74.1 °F - 64.9 °F 73% 30.10 in 10.0 mi West 3.5 mph - N/A   Clear
10:15 PM 73.6 °F - 64.9 °F 74% 30.10 in 10.0 mi West 3.5 mph - N/A   Clear
10:35 PM 73.6 °F - 64.8 °F 74% 30.10 in 10.0 mi West 4.6 mph - N/A   Mostly Cloudy
10:55 PM 72.1 °F - 64.6 °F 77% 30.10 in 10.0 mi Calm Calm - N/A   Scattered Clouds
11:15 PM 71.8 °F - 64.9 °F 79% 30.10 in 10.0 mi Calm Calm - N/A   Scattered Clouds
11:35 PM 70.5 °F - 64.8 °F 82% 30.11 in 10.0 mi Calm Calm - N/A   Scattered Clouds
11:55 PM 68.5 °F - 64.9 °F 88% 30.11 in 10.0 mi WSW 3.5 mph - N/A   Scattered Clouds